Regional Weather Roundup
Issued by NWS

Home | Current Version | Previous Version | Text Only | Print | Product List | Glossary Off
Versions: 1 2 3 4 5 6 7 8 9 10 11 12 13 14 15 16 17 18 19 20 21 22 23 24 25 26 27 28 29 30 31 32 33 34 35 36 37 38 39 40 41 42 43 44 45 46 47 48 49 50

000
ASUS45 KBOU 291107
RWRCO

WEATHER ROUNDUP FOR COLORADO
NATIONAL WEATHER SERVICE DENVER/BOULDER CO
500 AM MDT FRI APR 29 2016

NOTE: "FAIR" INDICATES FEW OR NO CLOUDS BELOW 12000 FEET WITH NO
SIGNIFICANT WEATHER AND/OR OBSTRUCTIONS TO VISIBILITY.

COZ001>005-013-030-031-291200-
...NORTHWEST COLORADO...

CITY           SKY/WX    TMP DP  RH WIND       PRES   REMARKS
CRAIG          CLOUDY    38  33  82 E6        29.84F
HAYDEN         FAIR      34  30  86 CALM      29.85F
MEEKER         CLOUDY    38  34  85 CALM      29.83F
MOUNT WERNER   NOT AVBL
STEAMBOAT SPGS MOCLDY    32  31  96 N3        29.85F
WALDEN         CLOUDY    28  25  86 CALM      29.92F
$$

COZ006>008-011-291200-
...WEST CENTRAL VALLEYS...

CITY           SKY/WX    TMP DP  RH WIND       PRES   REMARKS
GRAND JUNCTION FAIR      40  36  86 N6        29.82S
MONTROSE       FAIR      40  35  83 NW5       29.83S
EAGLE          CLOUDY    37  36  93 CALM      29.88F
RIFLE          FAIR      41  37  86 S3        29.82S
DELTA          NOT AVBL
NUCLA          NOT AVBL
$$

COZ017>023-064>068-291200-
...SOUTHWEST COLORADO...

CITY           SKY/WX    TMP DP  RH WIND       PRES   REMARKS
DURANGO        MOCLDY    34  32  92 SE5       29.85F WCI  30
CORTEZ         FAIR      32  29  88 SE6       29.84S WCI  26
PAGOSA SPRINGS CLOUDY    34  34  99 E3        29.87F FOG
TELLURIDE      FAIR      32  25  75 CALM      29.88F
WOLF CREEK PAS NOT AVBL
$$

COZ009-010-012-014-032>034-037-058>063-291200-
...CENTRAL COLORADO...

CITY           SKY/WX    TMP DP  RH WIND       PRES   REMARKS
ASPEN          LGT SNOW  33  31  92 N5        29.86S FOG     WCI  29
BUENA VISTA    LGT SNOW  30  28  93 MISG      29.94F
COPPER MTN     NOT AVBL
BERTHOUD PASS  HAZE      14   5  67 SE23      29.94F VSB<1/4 WCI  -5
COTTONWOOD PAS LGT SNOW  30  28  93 CALM      29.95F
GUNNISON       CLOUDY    34  30  86 NE5       29.90F WCI  30
KREMMLING      FAIR      32  30  93 CALM      29.89F
LEADVILLE      FLURRIES  24  23  96 S8        29.92S WCI  15
MONARCH PASS   CLOUDY    19  18  93 NE25      30.02F WCI   2
SALIDA         CLOUDY    32  31  96 CALM      30.01F
SUNLIGHT       CLOUDY    28  27  93 E3        29.93S
WILKERSON PASS FOG       21  19  93 S3        29.97F VSB 1/2
$$

COZ069>075-291200-
...SAN LUIS VALLEY/SANGRE DE CRISTO MOUNTAINS...

CITY           SKY/WX    TMP DP  RH WIND       PRES   REMARKS
ALAMOSA        LGT SNOW  33  32  96 NW5       29.84F FOG     WCI  29
LA VETA PASS   LGT SNOW  23  21  93 MISG      29.92F VSB 3/4
SAGUACHE       RAIN      36  34  93 CALM      29.86F
$$

COZ035-036-038>040-291200-
...NORTHERN COLORADO FRONT RANGE...

CITY           SKY/WX    TMP DP  RH WIND       PRES   REMARKS
DENVER INTL AP SNOW      33  30  88 E8        30.00F VSB 1/2 WCI  26
DMNS CITY PARK   N/A     34  33  99 NE5G12    30.00R WCI  29
AURORA         FLURRIES  32  32 100 E7        30.00R WCI  26
FRONT RANGE AP NOT AVBL
ERIE MUNI ARPT LGT SNOW  34  33  99 E3        30.01F
BOULDER MUN AP LGT RAIN  34  34 100 CALM      30.00F
CENTENNIAL     LGT SNOW  34  33  96 CALM      29.98F FOG
BROOMFIELD     LGT RAIN  34  34 100 CALM      30.01S
FORT COLLINS   CLOUDY    36  32  87 E10       30.00F
LONGMONT       MIX PCPN  37  35  94 SE3       30.03S
$$

COZ041-046-047-076>085-087-088-291200-
...PIKES PEAK/PALMER DIVIDE AND SOUTHERN FOOTHILLS...

CITY           SKY/WX    TMP DP  RH WIND       PRES   REMARKS
COLO. SPRINGS  FLURRIES  34  31  88 NE6       29.99S WCI  29
A. F. ACADEMY  MIX PCPN  32  32 100 CALM      29.98R
SCHRIEVER AFB  NOT AVBL
ELLICOTT       NOT AVBL
FALCON         CLOUDY    31  31 100 NE5       30.00S WCI  26
FORT CARSON    FLURRIES  33  32  97 NW6       29.97F WCI  27
LIMON          CLOUDY    32  32 100 NE6       29.99F WCI  26
MONUMENT HILL  CLOUDY    30  30 100 SE10      30.01R WCI  21
TRINIDAD       SNOW      33  31  92 N6        29.94R VSB 1/2 WCI  28
$$

COZ042>045-048>051-090-091-291200-
...NORTHEAST COLORADO...

CITY           SKY/WX    TMP DP  RH WIND       PRES   REMARKS
GREELEY ARPT   CLOUDY    36  34  93 E10       30.02F
AKRON          LGT RAIN  35  34  96 E8        30.04F WCI  29
BURLINGTON     MIX PCPN  37  35  92 NE14      29.99F
WRAY           NOT AVBL
STERLING       LGT RAIN  36  36 100 NE6       30.06F
HOLYOKE        NOT AVBL
FORT MORGAN    RAIN      35  34  95 E10       30.04F WCI  27
$$

COZ086-089-092>099-291200-
...SOUTHEAST COLORADO...

CITY           SKY/WX    TMP DP  RH WIND       PRES   REMARKS
PUEBLO         LGT RAIN  37  33  85 E7        29.99S
LA JUNTA       RAIN      41  38  89 NE13      29.97S
LAMAR          LGT RAIN  43  41  93 NE16      29.93F
SPRINGFIELD      N/A     41  41 100 NE21      29.89F
$$



USA.gov is the U.S. government's official web portal to all federal, state and local government web resources and services.